Terminal Aerodrome Forecast
Issued by NWS

Home | Current Version | Previous Version | Text Only | Print | Product List | Glossary On
Versions: 1 2 3 4 5 6 7 8 9 10 11 12 13 14 15 16 17 18
000
FTUS43 KAPX 300520
TAFAPN
TAF
KAPN 300520Z 3006/3106 24004KT P6SM SCT090 WS009/30025KT
     FM301300 26012G21KT P6SM SCT040
     FM302000 28012G18KT P6SM BKN040=

USA.gov is the U.S. government's official web portal to all federal, state and local government web resources and services.